Location: Caoba
(9.7667°N, 67.4833°W)
Time: 20:16:21
(UTC+00:00)

GOES 2 Rocket - Pass Details

Date: 11 December 2024
Orbit: 569 x 1662 km, 28.4° (Epoch: 14 January)

Event Time Altitude Azimuth Distance (km) Brightness Sun altitude
Rises 22:34:14 0° 225° (SW) 4,890 9.1 -6.2°
Reaches altitude 10° 22:37:51 10° 218° (SW) 3,871 8.2 -7.1°
Maximum altitude 22:47:20 43° 151° (SSE) 1,994 5.6 -9.2°
Enters shadow 22:54:57 12° 84° (E) 3,175 6.1 -11.0°
